Date String (YYYY-MM-DD hh:mm:ss) UTC,Instrument flags,Ambient pressure (hPa),Sample flow (lpm),Bypass flow (lpm),Sample temperature (°C),Ambient temperature (°C),ASC tube jacket temperature (°C),LED temperature (°C),Box temperature (°C),Sample RH (%),Span deviation,Mass concentration (μg/m³),Mass concentration (μg/m³),Mass concentration (μg/m³)
DateTimeUTC,F1_M11,P_M11,Q1_M11,Q2_M11,T1_M11,T2_M11,T3_M11,T4_M11,T5_M11,U1_M11,ZSPAN_M11,X0_M11,X2_M11,X1_M11
2021-12-27 16:00:00,,0815.9,5.01,0.00,22.0,21.3,00.0,31.1,23.6,10.7,0000.0,0012.61,0003.28,0001.58
2021-12-27 16:01:00,,0815.9,5.00,0.00,22.0,22.0,00.0,31.1,23.8,10.7,0000.0,0014.39,0003.38,0001.65
2021-12-27 16:02:00,,0816.0,4.99,0.00,22.2,23.0,00.0,31.2,24.2,10.6,0000.0,0015.66,0003.48,0001.74
2021-12-27 16:03:00,,0815.9,5.00,0.00,22.4,23.1,00.0,31.2,24.3,10.5,0000.0,0014.93,0003.55,0001.80
2021-12-27 16:04:00,,0815.9,5.01,0.00,22.4,22.9,00.0,31.2,24.3,10.6,0000.0,0014.78,0003.57,0001.85
2021-12-27 16:05:00,,0815.9,5.00,0.00,22.4,22.7,00.0,31.2,24.3,10.7,0000.0,0015.02,0003.63,0001.89
2021-12-27 16:06:00,,0815.9,4.99,0.00,22.4,22.5,00.0,31.3,24.3,10.6,0000.0,0015.92,0003.68,0001.94
2021-12-27 16:07:00,,0815.9,5.02,0.00,22.4,22.4,00.0,31.3,24.3,10.6,0000.0,0016.90,0003.69,0001.97
2021-12-27 16:08:00,,0815.9,5.00,0.00,22.5,22.3,00.0,31.3,24.3,10.6,0000.0,0016.53,0003.70,0001.99
2021-12-27 16:09:00,,0815.8,5.01,0.00,22.5,22.2,00.0,31.3,24.2,10.5,0000.0,0015.59,0003.69,0001.99
2021-12-27 16:10:00,,0815.8,5.00,0.00,22.5,22.2,00.0,31.3,24.2,10.5,0000.0,0015.19,0003.69,0001.98
2021-12-27 16:11:00,,0815.8,5.00,0.00,22.5,22.1,00.0,31.3,24.2,10.5,0000.0,0014.78,0003.62,0001.96
2021-12-27 16:12:00,,0815.8,5.01,0.00,22.5,22.1,00.0,31.3,24.2,10.6,0000.0,0013.37,0003.58,0001.94
2021-12-27 16:13:00,,0815.6,4.99,0.00,22.5,22.0,00.0,31.4,24.2,10.6,0000.0,0012.16,0003.52,0001.92
2021-12-27 16:14:00,,0815.7,5.01,0.00,22.5,22.0,00.0,31.4,24.2,10.6,0000.0,0012.09,0003.50,0001.93
2021-12-27 16:15:00,,0815.7,4.99,0.00,22.5,22.0,00.0,31.4,24.2,10.6,0000.0,0012.39,0003.47,0001.90
2021-12-27 16:16:00,,0815.8,5.01,0.00,22.5,22.0,00.0,31.4,24.3,10.6,0000.0,0011.96,0003.40,0001.88
2021-12-27 16:17:00,,0815.8,4.99,0.00,22.5,22.0,00.0,31.4,24.2,10.6,0000.0,0010.79,0003.32,0001.86
2021-12-27 16:18:00,,0815.8,5.01,0.00,22.5,22.0,00.0,31.4,24.2,10.6,0000.0,0009.70,0003.27,0001.85
2021-12-27 16:19:00,,0815.7,4.99,0.00,22.5,22.0,00.0,31.4,24.2,10.7,0000.0,0009.37,0003.24,0001.84
2021-12-27 16:20:00,,0815.7,5.00,0.00,22.5,21.9,00.0,31.4,24.2,10.8,0000.0,0009.66,0003.25,0001.87
2021-12-27 16:21:00,,0815.6,5.00,0.00,22.5,21.9,00.0,31.4,24.2,10.8,0000.0,0009.46,0003.23,0001.90
2021-12-27 16:22:00,,0816.1,5.00,0.00,22.5,21.9,00.0,31.4,24.3,10.8,0000.0,0009.18,0003.24,0001.94
2021-12-27 16:23:00,,0816.1,5.02,0.00,22.5,21.9,00.0,31.4,24.3,10.8,0000.0,0008.58,0003.22,0001.95
2021-12-27 16:24:00,,0815.7,4.99,0.00,22.5,21.9,00.0,31.4,24.3,10.8,0000.0,0008.19,0003.18,0001.93
2021-12-27 16:25:00,,0815.7,5.00,0.00,22.5,21.9,00.0,31.4,24.3,10.9,0000.0,0008.28,0003.18,0001.90
2021-12-27 16:26:00,,0815.6,4.99,0.00,22.6,21.9,00.0,31.4,24.3,10.8,0000.0,0008.02,0003.19,0001.90
2021-12-27 16:27:00,,0816.1,5.00,0.00,22.6,21.9,00.0,31.4,24.3,10.7,0000.0,0007.82,0003.13,0001.87
2021-12-27 16:28:00,,0816.1,4.99,0.00,22.5,21.9,00.0,31.4,24.3,10.7,0000.0,0007.79,0003.11,0001.83
2021-12-27 16:29:00,,0816.1,5.00,0.00,22.5,21.8,00.0,31.4,24.2,10.7,0000.0,0007.73,0003.07,0001.79
2021-12-27 16:30:00,,0816.0,5.01,0.00,22.5,21.8,00.0,31.4,24.2,10.7,0000.0,0007.30,0002.99,0001.76
2021-12-27 16:31:00,,0816.1,5.01,0.00,22.5,21.9,00.0,31.4,24.2,10.8,0000.0,0006.19,0002.91,0001.69
2021-12-27 16:32:00,,0816.1,5.00,0.00,22.5,21.9,00.0,31.4,24.2,10.8,0000.0,0006.44,0002.96,0001.63
2021-12-27 16:33:00,,0816.0,4.99,0.00,22.5,21.9,00.0,31.4,24.2,10.7,0000.0,0007.63,0002.91,0001.58
2021-12-27 16:34:00,,0816.0,5.01,0.00,22.5,21.9,00.0,31.5,24.2,10.7,0000.0,0008.00,0002.80,0001.54
2021-12-27 16:35:00,,0816.1,5.00,0.00,22.5,21.9,00.0,31.5,24.2,10.7,0000.0,0008.42,0002.76,0001.51
2021-12-27 16:36:00,,0816.1,5.00,0.00,22.5,21.9,00.0,31.5,24.2,10.7,0000.0,0008.77,0002.72,0001.47
2021-12-27 16:37:00,,0816.1,4.99,0.00,22.5,21.9,00.0,31.5,24.2,10.7,0000.0,0008.91,0002.63,0001.42
2021-12-27 16:38:00,,0816.0,5.01,0.00,22.5,21.9,00.0,31.5,24.2,10.7,0000.0,0009.10,0002.69,0001.41
2021-12-27 16:39:00,,0815.9,5.00,0.00,22.6,22.0,00.0,31.5,24.3,10.7,0000.0,0009.79,0002.78,0001.42
2021-12-27 16:40:00,,0815.4,4.99,0.00,22.6,22.0,00.0,31.5,24.3,10.7,0000.0,0010.49,0002.92,0001.44
2021-12-27 16:41:00,,0815.4,5.01,0.00,22.6,22.0,00.0,31.5,24.3,10.7,0000.0,0011.44,0003.01,0001.44
2021-12-27 16:42:00,,0815.4,4.99,0.00,22.6,22.0,00.0,31.5,24.3,10.7,0000.0,0011.83,0003.08,0001.47
2021-12-27 16:43:00,,0815.5,5.01,0.00,22.6,22.0,00.0,31.5,24.3,10.7,0000.0,0011.85,0003.05,0001.48
2021-12-27 16:44:00,,0815.4,4.99,0.00,22.6,22.0,00.0,31.5,24.3,10.7,0000.0,0011.31,0003.08,0001.48
2021-12-27 16:45:00,,0815.4,5.01,0.00,22.6,22.0,00.0,31.5,24.3,10.6,0000.0,0011.22,0003.10,0001.47
2021-12-27 16:46:00,,0815.5,4.99,0.00,22.6,22.0,00.0,31.5,24.3,10.6,0000.0,0011.12,0003.09,0001.45
2021-12-27 16:47:00,,0815.5,4.99,0.00,22.6,22.0,00.0,31.5,24.3,10.7,0000.0,0010.98,0003.11,0001.46
2021-12-27 16:48:00,,0815.4,5.00,0.00,22.6,22.0,00.0,31.5,24.3,10.7,0000.0,0011.14,0003.16,0001.47
2021-12-27 16:49:00,,0815.5,5.01,0.00,22.6,22.0,00.0,31.5,24.3,10.7,0000.0,0011.69,0003.19,0001.48
2021-12-27 16:50:00,,0815.4,5.01,0.00,22.6,22.0,00.0,31.5,24.3,10.6,0000.0,0011.70,0003.18,0001.48
2021-12-27 16:51:00,,0815.6,4.99,0.00,22.6,22.0,00.0,31.5,24.3,10.6,0000.0,0011.09,0003.14,0001.50
2021-12-27 16:52:00,,0815.5,5.02,0.00,22.6,22.0,00.0,31.5,24.4,10.7,0000.0,0010.56,0003.14,0001.51
2021-12-27 16:53:00,,0815.4,4.99,0.00,22.6,22.0,00.0,31.5,24.4,10.7,0000.0,0012.25,0003.14,0001.50
2021-12-27 16:54:00,,0815.4,5.00,0.00,22.7,22.0,00.0,31.5,24.4,10.7,0000.0,0013.07,0003.10,0001.50
2021-12-27 16:55:00,,0815.4,5.01,0.00,22.7,22.0,00.0,31.6,24.4,10.8,0000.0,0013.02,0003.15,0001.51
2021-12-27 16:56:00,,0815.5,4.99,0.00,22.7,22.1,00.0,31.6,24.5,10.7,0000.0,0012.84,0003.18,0001.52
2021-12-27 16:57:00,,0815.4,5.01,0.00,22.7,22.1,00.0,31.6,24.5,10.7,0000.0,0012.62,0003.20,0001.53
2021-12-27 16:58:00,,0815.4,5.01,0.00,22.7,22.1,00.0,31.6,24.5,10.7,0000.0,0012.48,0003.22,0001.54
2021-12-27 16:59:00,,0815.4,5.01,0.00,22.7,22.1,00.0,31.6,24.5,10.6,0000.0,0012.27,0003.20,0001.55
